Retour au catalogue

STARLINK-2474

ActifCommunicationsVLEO
NORAD 48132·PAYLOAD·🇺🇸 United States

Lancé Apr 7, 2021 depuis Cape Canaveral Space Force Station

Loading…

Prochains Passages (prochaines 24 heures)

TLE

FraisSource: CelesTrak SupGP

Époque: Sep 14, 2026, 20:24 UTC

1 48132C 21027AS  26257.85048611  .00006352  00000+0  20426-3 0  2574
2 48132  53.1599   7.4723 0001137  68.1671 247.1148 15.31700139    14

Suivez STARLINK-2474 en temps réel avec AllMySat

Download on the App Store